TimeCST,TemperatureF,Dew PointF,Humidity,Sea Level PressureIn,VisibilityMPH,Wind Direction,Wind SpeedMPH,Gust SpeedMPH,PrecipitationIn,Events,Conditions,WindDirDegrees,DateUTC
12:35 AM,73.9,70.0,87,29.96,7.0,SE,4.6,-,N/A,,Scattered Clouds,130,2013-11-06 06:35:00
12:55 AM,73.2,69.4,88,29.96,7.0,SE,4.6,-,N/A,,Clear,130,2013-11-06 06:55:00
1:15 AM,73.4,69.8,88,29.95,5.0,SE,4.6,-,N/A,,Clear,130,2013-11-06 07:15:00
1:35 AM,73.6,70.2,89,29.95,7.0,SE,4.6,-,N/A,,Clear,130,2013-11-06 07:35:00
1:55 AM,73.8,70.3,89,29.95,5.0,Calm,Calm,-,N/A,,Clear,0,2013-11-06 07:55:00
2:15 AM,73.4,70.2,90,29.95,5.0,Calm,Calm,-,N/A,,Clear,0,2013-11-06 08:15:00
2:35 AM,73.6,70.2,89,29.94,5.0,Calm,Calm,-,N/A,,Clear,0,2013-11-06 08:35:00
2:55 AM,72.0,68.9,90,29.95,4.0,Calm,Calm,-,N/A,,Scattered Clouds,0,2013-11-06 08:55:00
3:15 AM,71.8,68.7,90,29.95,5.0,Calm,Calm,-,N/A,,Scattered Clouds,0,2013-11-06 09:15:00
3:35 AM,72.5,69.4,90,29.95,5.0,SE,4.6,-,N/A,,Scattered Clouds,130,2013-11-06 09:35:00
3:55 AM,72.5,69.6,91,29.96,5.0,Calm,Calm,-,N/A,,Scattered Clouds,0,2013-11-06 09:55:00
4:15 AM,72.5,69.3,90,29.96,4.0,Calm,Calm,-,N/A,,Scattered Clouds,0,2013-11-06 10:15:00
4:35 AM,72.1,69.3,91,29.97,4.0,Calm,Calm,-,N/A,,Mostly Cloudy,0,2013-11-06 10:35:00
4:55 AM,72.0,69.1,91,29.97,4.0,East,3.5,-,N/A,,Mostly Cloudy,100,2013-11-06 10:55:00
5:15 AM,72.7,69.8,91,29.96,4.0,East,4.6,-,N/A,,Scattered Clouds,100,2013-11-06 11:15:00
5:35 AM,73.4,70.3,90,29.96,5.0,ESE,5.8,-,N/A,,Clear,120,2013-11-06 11:35:00
5:55 AM,73.8,70.9,91,29.97,5.0,ESE,5.8,-,N/A,,Clear,120,2013-11-06 11:55:00
6:15 AM,73.8,70.9,91,29.97,5.0,ESE,4.6,-,N/A,,Clear,120,2013-11-06 12:15:00
6:35 AM,73.6,70.7,91,29.98,5.0,ESE,4.6,-,N/A,,Scattered Clouds,120,2013-11-06 12:35:00
6:55 AM,73.4,70.3,90,29.98,4.0,ESE,3.5,-,N/A,,Scattered Clouds,120,2013-11-06 12:55:00
7:15 AM,73.8,70.9,91,29.99,4.0,Calm,Calm,-,N/A,,Scattered Clouds,0,2013-11-06 13:15:00
7:35 AM,74.8,72.0,91,30.00,4.0,ESE,3.5,-,N/A,,Scattered Clouds,120,2013-11-06 13:35:00
7:55 AM,76.3,73.0,90,30.00,5.0,ESE,4.6,-,N/A,,Clear,120,2013-11-06 13:55:00
8:15 AM,77.4,73.6,88,30.01,5.0,ESE,10.4,-,N/A,,Clear,120,2013-11-06 14:15:00
8:35 AM,79.0,72.7,81,30.02,7.0,SE,11.5,-,N/A,,Clear,130,2013-11-06 14:35:00
8:55 AM,80.4,72.3,76,30.02,7.0,SE,12.7,-,N/A,,Clear,140,2013-11-06 14:55:00
9:15 AM,81.1,72.0,74,30.03,7.0,SE,11.5,-,N/A,,Clear,130,2013-11-06 15:15:00
9:35 AM,82.6,71.2,68,30.03,7.0,SE,11.5,-,N/A,,Clear,130,2013-11-06 15:35:00
9:55 AM,85.5,69.1,58,30.04,7.0,SE,13.8,-,N/A,,Clear,130,2013-11-06 15:55:00
10:15 AM,84.7,68.7,58,30.05,7.0,SE,9.2,-,N/A,,Scattered Clouds,140,2013-11-06 16:15:00
10:35 AM,86.0,68.9,56,30.05,7.0,SE,10.4,-,N/A,,Scattered Clouds,140,2013-11-06 16:35:00
10:55 AM,86.2,68.5,55,30.05,7.0,SE,10.4,-,N/A,,Clear,140,2013-11-06 16:55:00
11:15 AM,85.3,68.0,56,30.05,7.0,SE,8.1,-,N/A,,Clear,140,2013-11-06 17:15:00
11:35 AM,85.3,68.5,57,30.04,7.0,South,5.8,-,N/A,,Scattered Clouds,170,2013-11-06 17:35:00
11:55 AM,85.3,68.5,57,30.04,7.0,SE,5.8,-,N/A,,Scattered Clouds,140,2013-11-06 17:55:00
12:15 PM,86.2,68.2,55,30.04,7.0,SE,6.9,-,N/A,,Scattered Clouds,140,2013-11-06 18:15:00
12:35 PM,86.5,68.7,55,30.03,7.0,South,5.8,-,N/A,,Clear,180,2013-11-06 18:35:00
12:55 PM,88.0,68.0,51,30.02,7.0,South,5.8,-,N/A,,Scattered Clouds,170,2013-11-06 18:55:00
1:15 PM,87.3,67.8,52,30.01,7.0,SE,4.6,-,N/A,,Mostly Cloudy,140,2013-11-06 19:15:00
1:35 PM,88.2,67.8,51,30.00,7.0,ESE,4.6,-,N/A,,Mostly Cloudy,120,2013-11-06 19:35:00
1:55 PM,89.1,66.7,48,29.99,7.0,South,5.8,-,N/A,,Scattered Clouds,180,2013-11-06 19:55:00
2:15 PM,89.1,66.7,48,29.99,7.0,SSW,3.5,-,N/A,,Scattered Clouds,210,2013-11-06 20:15:00
2:35 PM,89.2,65.8,46,29.99,7.0,South,4.6,-,N/A,,Clear,190,2013-11-06 20:35:00
2:55 PM,88.7,65.3,46,29.99,10.0,Calm,Calm,-,N/A,,Mostly Cloudy,0,2013-11-06 20:55:00
3:15 PM,87.8,67.3,50,29.98,10.0,SE,6.9,-,N/A,,Overcast,140,2013-11-06 21:15:00
3:35 PM,88.2,67.3,50,29.98,10.0,SE,8.1,-,N/A,,Scattered Clouds,140,2013-11-06 21:35:00
3:55 PM,88.5,67.6,50,29.99,10.0,SE,10.4,-,N/A,,Clear,130,2013-11-06 21:55:00
4:15 PM,85.6,68.4,56,30.00,7.0,East,13.8,-,N/A,,Scattered Clouds,100,2013-11-06 22:15:00
4:35 PM,84.7,67.3,56,30.01,10.0,East,13.8,-,N/A,,Mostly Cloudy,100,2013-11-06 22:35:00
4:55 PM,82.6,68.5,62,30.03,7.0,East,10.4,-,N/A,Thunderstorm,Thunderstorm,90,2013-11-06 22:55:00
5:15 PM,82.4,68.4,62,30.04,10.0,East,4.6,-,N/A,Thunderstorm,Mostly Cloudy,100,2013-11-06 23:15:00
5:35 PM,80.8,70.0,70,30.05,10.0,SSE,3.5,-,N/A,Rain,Light Rain,160,2013-11-06 23:35:00
5:55 PM,75.7,69.8,82,30.05,10.0,WNW,8.1,-,N/A,Rain,Light Rain,290,2013-11-06 23:55:00
6:15 PM,75.2,70.5,85,30.05,7.0,WNW,4.6,-,0.01,Rain,Rain,300,2013-11-07 00:15:00
6:35 PM,75.2,71.1,87,30.07,10.0,North,10.4,-,0.04,Rain,Rain,360,2013-11-07 00:35:00
6:55 PM,75.0,71.1,87,30.08,10.0,NNE,12.7,-,0.04,Rain,Light Rain,20,2013-11-07 00:55:00
7:15 PM,74.7,70.9,88,30.10,10.0,NNE,16.1,19.6,N/A,Thunderstorm,Unknown,20,2013-11-07 01:15:00
7:35 PM,73.4,69.8,88,30.11,7.0,NNE,15.0,-,0.03,Rain-Thunderstorm,Rain,30,2013-11-07 01:35:00
7:55 PM,73.2,69.6,88,30.12,7.0,NNE,11.5,-,0.11,Rain,Rain,30,2013-11-07 01:55:00
8:15 PM,72.9,69.4,89,30.14,3.0,NNE,9.2,-,0.17,Rain,Heavy Rain,30,2013-11-07 02:15:00
8:35 PM,72.1,68.9,89,30.15,5.0,NNE,13.8,19.6,0.29,Rain,Rain,20,2013-11-07 02:35:00
8:55 PM,71.6,68.0,88,30.16,10.0,North,15.0,26.5,0.32,Rain,Rain,10,2013-11-07 02:55:00
9:15 PM,70.7,67.3,89,30.17,7.0,North,15.0,-,0.05,Rain,Rain,360,2013-11-07 03:15:00
9:35 PM,68.9,65.7,89,30.18,5.0,North,16.1,21.9,0.17,Rain,Rain,10,2013-11-07 03:35:00
9:55 PM,68.2,64.9,89,30.18,7.0,North,16.1,-,0.23,Rain,Rain,360,2013-11-07 03:55:00
10:15 PM,67.3,64.2,90,30.19,10.0,North,11.5,-,0.02,Rain,Light Rain,10,2013-11-07 04:15:00
10:35 PM,66.6,63.3,89,30.20,10.0,NNE,15.0,23.0,0.02,,Light Drizzle,20,2013-11-07 04:35:00
10:55 PM,66.4,63.1,89,30.20,10.0,NNE,12.7,17.3,0.03,Rain,Rain,20,2013-11-07 04:55:00
11:15 PM,66.6,63.5,90,30.20,10.0,North,13.8,-,N/A,Rain,Rain,10,2013-11-07 05:15:00
11:35 PM,65.3,61.9,89,30.20,10.0,North,16.1,24.2,0.01,Rain,Light Rain,360,2013-11-07 05:35:00
11:55 PM,63.7,60.3,89,30.21,10.0,NNE,18.4,26.5,0.02,,Drizzle,20,2013-11-07 05:55:00